Location: Wanzleben
(52.0609°N, 11.4408°E)
Time: 15:57:39
(UTC+00:00)

ERS-1 Rocket - Pass Details

Date: 18 September 2020
Orbit: 754 x 757 km, 98.5° (Epoch: 22 October)

Event Time Altitude Azimuth Distance (km) Brightness Sun altitude
Exits shadow 19:17:23 21° 72° (ENE) 1,642 4.3 -18.0°
Maximum altitude 19:18:17 22° 57° (ENE) 1,598 4.4 -18.1°
Drops below altitude 10° 19:22:07 10° 7° (N) 2,297 5.7 -18.6°
Sets 19:24:51 0° 353° (N) 3,228 6.8 -19.0°
